SCP
0 0 0 0 0 0 0 0 0 0 0 0 0 0 0 0 0 0 0 0 0 0 0 0 0 0 0
0 0 0 0 0 0 0 0 0 0 0 0 0 0 0 0 0 0 0 0 0 0 0 0 0 0 0
0 0 0 0 0 0 0 0 0 0 0 0 0 0 0 0 0 0 0 0 0 0 0 0 0 0 0
0 0 0 0 0 0 0 0 0 0 0 0 0 0 0 0 0 0 0 0 0 0 0 0 0 0 0
0 0 0 0 0 0 0 0 0 0 0 0 0 0 0 0 0 0 0 0 0 0 0 0 0 0 0
0 0 0 0 0 0 0 0 0 0 0 0 0 0 0 0 0 0 0 0 0 0 0 0 0 0 0
0 0 0 0 0 0 0 0 0 0 0 0 0 0 0 0 0 0 0 0 0 0 0 0 0 0 0
0 0 0 0 0 0 0 0 0 0 0 0 0 0 0 0 0 0 0 0 0 0 0 0 0 0 0
0 0 0 0 0 0 0 0 0 0 0 0 0 0 0 0 0 0 0 0 0 0 0 0 0 0 0
0 0 0 0 0 0 0 0 0 0 0 0 0 0 0 0 0 0 0 0 0 0 0 0 0 0 0
0 0 0 0 0 0 0 0 0 0 0 0 0 0 0 0 0 0 0 0 0 0 0 0 0 -0 -0
0 0 0 0 0 0 0 0 0 0 0 0 0 0 0 0 0 0 0 0 0 0 0 0 0 0 0
0 0 0 0 0 0 0 0 0 0 0 0 0 0 0 0 0 0 0 0 0 0 0 0 0 0 0
0 0 0 0 0 0 0 0 0 0 0 0 0 0 0 0 0 0 0 0 0 0 0 0 0 0 0
0 0 0 0 0 0 0 0 0 0 0 0 0 0 0 0 0 0 0 0 0 0 0 0 0 0 0
0 0 0 0 0 0 0 0 0 0 0 0 0 0 0 0 0 0 0 0 0 0 0 0 0 0 0
0 0 0 0 0 0 0 0 0 0 0 0 0 0 0 0 0 0 0 0 0 0 0 0 0 0 0
Wind_Speed_500mb
58 52 48 46 42 42 42 42 39 38 38 37 35 36 34 33 34 33 31 25 25 25 26 24 23 24 26
60 55 50 46 44 45 40 40 40 37 38 37 39 39 33 30 33 34 33 30 22 21 24 20 18 17 20
61 58 54 48 44 42 40 38 38 37 38 39 40 39 36 33 33 33 28 29 25 21 24 25 21 19 17
61 58 55 47 46 45 43 37 40 36 35 28 27 33 38 36 33 32 32 28 27 23 22 24 21 19 20
61 59 55 47 44 42 44 43 42 35 27 22 31 32 34 36 32 27 25 23 25 27 24 22 22 23 22
60 61 53 47 41 38 41 43 41 27 34 41 34 27 29 28 28 26 29 29 30 30 22 23 29 28 26
61 57 49 41 40 41 38 38 40 36 44 52 34 28 29 25 26 28 29 26 30 23 20 29 29 30 29
58 53 48 44 45 41 36 38 41 42 37 45 37 33 20 30 29 26 26 24 22 18 34 31 28 28 29
62 58 57 51 44 33 36 39 48 46 36 38 25 29 33 21 15 19 20 21 23 38 40 39 41 37 29
59 56 50 45 36 42 45 46 39 39 18 20 26 33 17 17 4 12 24 32 34 33 40 39 39 40 36
53 47 45 43 40 37 38 41 40 39 38 38 36 37 34 38 37 32 28 24 33 32 32 35 35 34 37
43 44 43 40 35 33 39 40 39 35 32 39 44 42 40 43 48 37 35 30 33 31 26 22 30 36 41
46 49 41 31 34 39 36 35 32 33 36 40 41 39 38 42 47 42 47 39 25 24 38 39 39 39 42
44 40 35 37 40 36 33 30 32 35 31 30 33 34 35 37 40 43 42 40 37 36 41 41 40 40 41
47 43 42 39 38 33 32 32 34 34 30 24 25 29 34 37 42 41 39 41 37 37 37 42 40 40 42
44 43 36 38 36 34 35 36 36 36 31 24 21 27 32 32 35 33 36 39 31 33 42 50 53 39 42
38 35 37 36 36 37 37 37 39 35 31 24 21 23 29 38 43 37 36 41 44 45 42 46 53 47 48
Wind_Direction_500mb
287 293 296 300 302 303 306 305 304 305 307 307 301 305 301 299 297 298 298 292 293 299 290 296 299 294 290
284 289 291 295 299 300 303 304 305 302 300 301 298 301 295 298 294 293 294 292 291 296 298 295 302 308 308
278 284 289 293 294 297 301 302 302 304 300 297 294 293 293 292 290 291 295 296 296 284 298 302 308 314 320
271 278 283 289 291 297 298 299 299 301 302 298 293 291 294 295 289 286 289 289 288 293 299 308 309 307 314
266 272 277 281 285 293 294 300 301 305 300 296 296 290 286 288 285 284 289 286 286 289 300 311 315 320 328
265 267 273 277 280 286 291 298 307 309 306 304 309 302 293 287 285 283 284 282 275 279 292 318 321 320 321
260 264 269 273 280 283 287 286 288 302 307 302 309 304 299 285 284 284 280 272 264 277 289 306 309 314 317
262 269 270 273 276 281 280 284 289 300 305 296 309 310 303 298 288 272 263 261 273 268 311 309 309 309 312
255 258 262 265 267 269 267 275 290 300 301 294 302 308 318 309 278 258 277 281 279 299 310 311 313 311 311
247 251 253 254 251 248 261 271 283 297 294 285 295 316 326 319 126 322 287 297 295 301 302 303 304 307 308
245 244 246 247 253 255 260 271 275 272 274 281 289 299 304 299 293 298 297 298 301 302 300 299 301 303 305
237 238 242 248 253 259 268 270 272 268 263 266 277 287 291 293 297 307 308 311 310 306 302 305 301 299 301
232 241 245 255 257 266 269 267 264 265 265 269 274 278 278 282 290 305 312 317 315 313 305 301 300 295 293
238 243 249 250 264 269 261 261 266 271 271 270 273 274 276 279 286 297 303 304 308 308 301 298 293 293 295
237 242 249 255 261 258 256 257 268 282 278 269 262 265 272 283 289 296 304 302 308 308 302 300 295 296 292
236 244 246 257 261 252 256 257 270 282 278 279 261 269 278 280 287 300 300 306 310 305 303 303 300 299 295
236 247 254 257 249 248 256 259 270 272 275 274 268 282 296 299 305 311 309 315 312 304 305 303 302 301 297
Wind_Speed_850mb
58 52 48 46 42 42 42 42 39 38 38 37 35 36 34 33 34 33 31 25 25 25 26 24 23 24 26
60 55 50 46 44 45 40 40 40 37 38 37 39 39 33 30 33 34 33 30 22 21 24 20 18 17 20
61 58 54 48 44 42 40 38 38 37 38 39 40 39 36 33 33 33 28 29 25 21 24 25 21 19 17
61 58 55 47 46 45 43 37 40 36 35 28 27 33 38 36 33 32 32 28 27 23 22 24 21 19 20
61 59 55 47 44 42 44 43 42 35 27 22 31 32 34 36 32 27 25 23 25 27 24 22 22 23 22
60 61 53 47 41 38 41 43 41 27 34 41 34 27 29 28 28 26 29 29 30 30 22 23 29 28 26
61 57 49 41 40 41 38 38 40 36 44 52 34 28 29 25 26 28 29 26 30 23 20 29 29 30 29
58 53 48 44 45 41 36 38 41 42 37 45 37 33 20 30 29 26 26 24 22 18 34 31 28 28 29
62 58 57 51 44 33 36 39 48 46 36 38 25 29 33 21 15 19 20 21 23 38 40 39 41 37 29
59 56 50 45 36 42 45 46 39 39 18 20 26 33 17 17 4 12 24 32 34 33 40 39 39 40 36
53 47 45 43 40 37 38 41 40 39 38 38 36 37 34 38 37 32 28 24 33 32 32 35 35 34 37
43 44 43 40 35 33 39 40 39 35 32 39 44 42 40 43 48 37 35 30 33 31 26 22 30 36 41
46 49 41 31 34 39 36 35 32 33 36 40 41 39 38 42 47 42 47 39 25 24 38 39 39 39 42
44 40 35 37 40 36 33 30 32 35 31 30 33 34 35 37 40 43 42 40 37 36 41 41 40 40 41
47 43 42 39 38 33 32 32 34 34 30 24 25 29 34 37 42 41 39 41 37 37 37 42 40 40 42
44 43 36 38 36 34 35 36 36 36 31 24 21 27 32 32 35 33 36 39 31 33 42 50 53 39 42
38 35 37 36 36 37 37 37 39 35 31 24 21 23 29 38 43 37 36 41 44 45 42 46 53 47 48
Wind_Direction_850mb
287 293 296 300 302 303 306 305 304 305 307 307 301 305 301 299 297 298 298 292 293 299 290 296 299 294 290
284 289 291 295 299 300 303 304 305 302 300 301 298 301 295 298 294 293 294 292 291 296 298 295 302 308 308
278 284 289 293 294 297 301 302 302 304 300 297 294 293 293 292 290 291 295 296 296 284 298 302 308 314 320
271 278 283 289 291 297 298 299 299 301 302 298 293 291 294 295 289 286 289 289 288 293 299 308 309 307 314
266 272 277 281 285 293 294 300 301 305 300 296 296 290 286 288 285 284 289 286 286 289 300 311 315 320 328
265 267 273 277 280 286 291 298 307 309 306 304 309 302 293 287 285 283 284 282 275 279 292 318 321 320 321
260 264 269 273 280 283 287 286 288 302 307 302 309 304 299 285 284 284 280 272 264 277 289 306 309 314 317
262 269 270 273 276 281 280 284 289 300 305 296 309 310 303 298 288 272 263 261 273 268 311 309 309 309 312
255 258 262 265 267 269 267 275 290 300 301 294 302 308 318 309 278 258 277 281 279 299 310 311 313 311 311
247 251 253 254 251 248 261 271 283 297 294 285 295 316 326 319 126 322 287 297 295 301 302 303 304 307 308
245 244 246 247 253 255 260 271 275 272 274 281 289 299 304 299 293 298 297 298 301 302 300 299 301 303 305
237 238 242 248 253 259 268 270 272 268 263 266 277 287 291 293 297 307 308 311 310 306 302 305 301 299 301
232 241 245 255 257 266 269 267 264 265 265 269 274 278 278 282 290 305 312 317 315 313 305 301 300 295 293
238 243 249 250 264 269 261 261 266 271 271 270 273 274 276 279 286 297 303 304 308 308 301 298 293 293 295
237 242 249 255 261 258 256 257 268 282 278 269 262 265 272 283 289 296 304 302 308 308 302 300 295 296 292
236 244 246 257 261 252 256 257 270 282 278 279 261 269 278 280 287 300 300 306 310 305 303 303 300 299 295
236 247 254 257 249 248 256 259 270 272 275 274 268 282 296 299 305 311 309 315 312 304 305 303 302 301 297